TimeCST,TemperatureF,Dew PointF,Humidity,Sea Level PressureIn,VisibilityMPH,Wind Direction,Wind SpeedMPH,Gust SpeedMPH,PrecipitationIn,Events,Conditions,WindDirDegrees,DateUTC
12:10 AM,23.0,14.0,68,30.16,10.0,WSW,6.9,-,N/A,,Clear,240,2013-02-02 06:10:00
12:30 AM,23.0,14.0,68,30.17,10.0,WSW,6.9,-,N/A,,Clear,250,2013-02-02 06:30:00
12:50 AM,23.0,15.8,74,30.16,10.0,WSW,9.2,-,N/A,,Clear,240,2013-02-02 06:50:00
1:10 AM,23.0,15.8,74,30.17,10.0,SW,6.9,-,N/A,,Clear,230,2013-02-02 07:10:00
1:30 AM,24.8,15.8,69,30.17,10.0,West,6.9,-,N/A,,Clear,260,2013-02-02 07:30:00
1:50 AM,24.8,15.8,69,30.18,10.0,NNW,8.1,-,N/A,,Clear,330,2013-02-02 07:50:00
2:10 AM,23.0,15.8,74,30.18,10.0,NNW,5.8,-,N/A,,Clear,330,2013-02-02 08:10:00
2:30 AM,23.0,15.8,74,30.18,10.0,WNW,4.6,-,N/A,,Clear,290,2013-02-02 08:30:00
2:50 AM,23.0,15.8,74,30.18,10.0,WNW,8.1,-,N/A,,Clear,300,2013-02-02 08:50:00
3:10 AM,23.0,15.8,74,30.18,10.0,WNW,8.1,-,N/A,,Clear,290,2013-02-02 09:10:00
3:30 AM,26.6,17.6,69,30.19,10.0,WNW,6.9,-,N/A,,Clear,290,2013-02-02 09:30:00
3:50 AM,24.8,17.6,74,30.19,10.0,West,5.8,-,N/A,,Clear,260,2013-02-02 09:50:00
4:10 AM,24.8,17.6,74,30.19,10.0,WNW,6.9,-,N/A,,Clear,290,2013-02-02 10:10:00
4:30 AM,24.8,17.6,74,30.19,10.0,WNW,10.4,-,N/A,,Clear,300,2013-02-02 10:30:00
4:50 AM,26.6,19.4,74,30.20,10.0,NW,9.2,-,N/A,,Clear,310,2013-02-02 10:50:00
5:10 AM,30.2,23.0,75,30.20,10.0,NNW,8.1,-,N/A,,Clear,340,2013-02-02 11:10:00
5:30 AM,32.0,24.8,75,30.21,10.0,NNW,13.8,-,N/A,,Clear,330,2013-02-02 11:30:00
5:50 AM,33.8,26.6,75,30.22,10.0,NNW,11.5,-,N/A,,Clear,330,2013-02-02 11:50:00
6:10 AM,35.6,28.4,75,30.22,10.0,NNW,12.7,-,N/A,,Clear,330,2013-02-02 12:10:00
6:30 AM,35.6,28.4,75,30.23,10.0,NNW,12.7,-,N/A,,Clear,330,2013-02-02 12:30:00
6:50 AM,33.8,28.4,81,30.24,10.0,NW,10.4,-,N/A,,Clear,320,2013-02-02 12:50:00
7:10 AM,33.8,28.4,81,30.24,10.0,NW,10.4,-,N/A,,Clear,320,2013-02-02 13:10:00
7:30 AM,32.0,28.4,87,30.25,10.0,NW,8.1,-,N/A,,Clear,310,2013-02-02 13:30:00
7:50 AM,32.0,28.4,87,30.26,10.0,West,5.8,-,N/A,,Clear,280,2013-02-02 13:50:00
8:10 AM,32.0,28.4,87,30.27,10.0,NW,6.9,-,N/A,,Clear,320,2013-02-02 14:10:00
8:30 AM,35.6,32.0,87,30.27,10.0,NW,9.2,-,N/A,,Clear,310,2013-02-02 14:30:00
8:50 AM,37.4,32.0,81,30.29,10.0,NW,10.4,-,N/A,,Clear,320,2013-02-02 14:50:00
9:10 AM,39.2,32.0,75,30.30,10.0,NNW,13.8,18.4,N/A,,Clear,340,2013-02-02 15:10:00
9:30 AM,41.0,32.0,70,30.31,10.0,NNW,11.5,-,N/A,,Clear,340,2013-02-02 15:30:00
9:50 AM,44.6,32.0,61,30.32,10.0,NNW,12.7,-,N/A,,Clear,340,2013-02-02 15:50:00
10:10 AM,46.4,32.0,57,30.32,10.0,NNW,13.8,-,N/A,,Clear,340,2013-02-02 16:10:00
10:30 AM,46.4,32.0,57,30.32,10.0,NNW,13.8,-,N/A,,Clear,330,2013-02-02 16:30:00
10:50 AM,48.2,32.0,54,30.32,10.0,NW,12.7,-,N/A,,Clear,310,2013-02-02 16:50:00
11:10 AM,50.0,32.0,50,30.32,10.0,WNW,12.7,-,N/A,,Clear,300,2013-02-02 17:10:00
11:30 AM,53.6,32.0,44,30.32,10.0,NW,13.8,-,N/A,,Clear,320,2013-02-02 17:30:00
11:50 AM,53.6,32.0,44,30.31,10.0,NW,10.4,18.4,N/A,,Clear,320,2013-02-02 17:50:00
12:10 PM,53.6,32.0,44,30.30,10.0,NW,16.1,19.6,N/A,,Clear,320,2013-02-02 18:10:00
12:30 PM,55.4,30.2,38,30.29,10.0,NNW,11.5,19.6,N/A,,Clear,330,2013-02-02 18:30:00
12:50 PM,57.2,30.2,36,30.28,10.0,NNW,15.0,20.7,N/A,,Clear,330,2013-02-02 18:50:00
1:10 PM,57.2,28.4,33,30.27,10.0,NNW,13.8,19.6,N/A,,Clear,340,2013-02-02 19:10:00
1:30 PM,57.2,28.4,33,30.26,10.0,NNW,12.7,20.7,N/A,,Clear,330,2013-02-02 19:30:00
1:50 PM,59.0,26.6,29,30.26,10.0,North,11.5,21.9,N/A,,Clear,360,2013-02-02 19:50:00
2:10 PM,59.0,26.6,29,30.25,10.0,NNW,11.5,-,N/A,,Clear,340,2013-02-02 20:10:00
2:30 PM,59.0,24.8,27,30.25,10.0,NNW,11.5,18.4,N/A,,Clear,340,2013-02-02 20:30:00
2:50 PM,59.0,24.8,27,30.25,10.0,NNW,15.0,21.9,N/A,,Clear,330,2013-02-02 20:50:00
3:10 PM,60.8,24.8,25,30.26,10.0,WNW,15.0,19.6,N/A,,Clear,300,2013-02-02 21:10:00
3:30 PM,59.0,23.0,25,30.25,10.0,NW,12.7,19.6,N/A,,Clear,320,2013-02-02 21:30:00
3:50 PM,59.0,23.0,25,30.25,10.0,NW,15.0,20.7,N/A,,Clear,320,2013-02-02 21:50:00
4:10 PM,59.0,23.0,25,30.26,10.0,NNW,10.4,18.4,N/A,,Clear,340,2013-02-02 22:10:00
4:30 PM,59.0,23.0,25,30.26,10.0,NW,11.5,-,N/A,,Clear,320,2013-02-02 22:30:00
4:50 PM,59.0,23.0,25,30.26,10.0,NW,11.5,-,N/A,,Clear,310,2013-02-02 22:50:00
5:30 PM,53.6,23.0,30,30.26,10.0,NW,6.9,-,N/A,,Clear,310,2013-02-02 23:30:00
6:10 PM,51.8,19.4,28,30.26,10.0,NW,8.1,-,N/A,,Clear,320,2013-02-03 00:10:00
6:50 PM,50.0,21.2,32,30.27,10.0,NW,5.8,-,N/A,,Scattered Clouds,310,2013-02-03 00:50:00
7:10 PM,46.4,21.2,37,30.27,10.0,WNW,6.9,-,N/A,,Partly Cloudy,290,2013-02-03 01:10:00
7:30 PM,46.4,19.4,34,30.27,10.0,WSW,5.8,-,N/A,,Partly Cloudy,250,2013-02-03 01:30:00
7:50 PM,37.4,19.4,48,30.28,10.0,West,5.8,-,N/A,,Scattered Clouds,280,2013-02-03 01:50:00
8:10 PM,39.2,19.4,45,30.28,10.0,West,5.8,-,N/A,,Mostly Cloudy,270,2013-02-03 02:10:00
8:50 PM,35.6,19.4,52,30.28,10.0,WSW,8.1,-,N/A,,Overcast,250,2013-02-03 02:50:00
9:10 PM,35.6,19.4,52,30.28,10.0,West,6.9,-,N/A,,Overcast,260,2013-02-03 03:10:00
9:30 PM,37.4,19.4,48,30.28,10.0,West,6.9,-,N/A,,Overcast,270,2013-02-03 03:30:00
9:50 PM,35.6,19.4,52,30.29,10.0,WSW,9.2,-,N/A,,Overcast,250,2013-02-03 03:50:00
10:10 PM,35.6,19.4,52,30.28,9.0,West,8.1,-,N/A,,Overcast,260,2013-02-03 04:10:00
10:30 PM,33.8,19.4,56,30.29,10.0,West,9.2,-,N/A,,Mostly Cloudy,270,2013-02-03 04:30:00
10:50 PM,35.6,21.2,56,30.29,10.0,West,8.1,-,N/A,,Mostly Cloudy,270,2013-02-03 04:50:00
11:10 PM,33.8,19.4,56,30.29,10.0,WNW,6.9,-,N/A,,Mostly Cloudy,300,2013-02-03 05:10:00
11:30 PM,35.6,21.2,56,30.29,10.0,NW,8.1,-,N/A,,Partly Cloudy,310,2013-02-03 05:30:00
11:50 PM,35.6,21.2,56,30.30,10.0,NNW,5.8,-,N/A,,Clear,330,2013-02-03 05:50:00